Regional Weather Roundup
Issued by NWS

Home | Current Version | Previous Version | Text Only | Print | Product List | Glossary On
Versions: 1 2 3 4 5 6 7 8 9 10 11 12 13 14 15 16 17 18 19 20 21 22 23 24 25 26 27
000
ASUS44 KLIX 201413
RWRLA
LOUISIANA WEATHER ROUNDUP
NATIONAL WEATHER SERVICE NEW ORLEANS LA
800 AM CST SAT JAN 20 2018

NOTE: "FAIR" INDICATES FEW OR NO CLOUDS BELOW 12,000 FEET WITH NO
      SIGNIFICANT WEATHER AND/OR OBSTRUCTIONS TO VISIBILITY.
      SKY/WX - SKY CONDITION AND SIGNIFICANT WEATHER.
      TMP - AIR TEMPERATURE.    DP   - DEWPOINT TEMPERATURE.
      RH  - RELATIVE HUMIDITY.  PRES - PRESSURE.
      HX  - HEAT INDEX.         WCI  - WIND CHILL INDEX.

*  THESE STATIONS ARE NOT NWS OR FAA STATIONS AND ARE NOT UNDER
   NWS QUALITY CONTROL.

LAZ040-048-061>063-065-066-069-201500-
SOUTHEAST LOUISIANA

CITY           SKY/WX    TMP DP  RH WIND       PRES   REMARKS
N.O. INTL ARPT LGT RAIN  53  50  89 SE10      30.23S
N.O. LAKEFRONT LGT RAIN  52  45  77 E12       30.24S
N.O. DOWNTOWN* CLOUDY    54  48  80 VRB3      30.24S
RESERVE*       LGT RAIN  48  43  81 CALM      30.24R
SLIDELL        FAIR      48  41  76 E5        30.25R
BATON ROUGE    PTSUNNY   47  42  83 E6        30.22R
BOOTHVILLE     CLOUDY    52  50  93 E5        30.25R
BELLE CHASSE   PTSUNNY   52  49  89 E8        30.23S
BOGALUSA*      FAIR      41  37  85 CALM      30.26S
GALLIANO*      FAIR      52  46  81 CALM      30.23R
NEW ROADS*     DRIZZLE   44  40  85 CALM      30.22R
GONZALES*      CLOUDY    47  40  78 CALM      30.22S
HAMMOND*       FAIR      39  36  87 CALM      30.24R
HOUMA*         PTSUNNY   52  52 100 E5        30.21S
PORT FOURCHON* PTSUNNY   55  54  94 E7        30.23R

$$

LAZ041-044-053-054-201500-
SOUTHWEST LOUISIANA

CITY           SKY/WX    TMP DP  RH WIND       PRES   REMARKS
LAKE CHARLES   MOCLDY    52  51  97 E7        30.16R
LAFAYETTE      PTSUNNY   50  45  83 E6        30.19S
PATTERSON      CLOUDY    49  48  97 E5        30.21S
SALT POINT       N/A     52  50  93 VRB5      30.19R
NEW IBERIA     LGT RAIN  50  45  83 E8        30.20S
CHENAULT AIRPK NOT AVBL

$$

LAZ027-028-201500-
CENTRAL LOUISIANA

CITY           SKY/WX    TMP DP  RH WIND       PRES   REMARKS
FORT POLK      CLOUDY    48  47  95 SE6       30.15S
ALEXANDRIA INT LGT RAIN  46  42  86 SE8       30.16S FOG
ALEXANDRIA     CLOUDY    44  43  96 CALM      30.18R

$$

LAZ001-002-201500-
NORTHWEST LOUISIANA

CITY           SKY/WX    TMP DP  RH WIND       PRES   REMARKS
SHREVEPORT     CLOUDY    48  41  76 SE7       30.11S
BARKSDALE AFB  CLOUDY    46  41  83 S9        30.11F
DTN SHREVEPORT CLOUDY    48  38  68 SE6       30.12S

$$

LAZ014-016-201500-
NORTHEAST LOUISIANA

CITY           SKY/WX    TMP DP  RH WIND       PRES   REMARKS
MONROE         CLOUDY    47  35  63 VRB5      30.19R
TALLULAH       CLOUDY    47  30  51 S8        30.21S

$$





USA.gov is the U.S. government's official web portal to all federal, state and local government web resources and services.